This is the latest recevied weather packets stored in our database for station/object W9PEM-13. If no packets are shown the sender has not sent any weather packets the latest 1 day(s).
| Time | Temp. | Humidity | Pressure | Rain* | Wind** | Luminosity | Snow |
|---|---|---|---|---|---|---|---|
| 1778095168 | 11.11° C | 43% | 982.3 hPa | 0 mm | - | 389 W/m² | - |
| 1778094450 | 11.11° C | 44% | 982.2 hPa | 0 mm | - | 281 W/m² | - |
| 1778094361 | 11.11° C | 44% | 982.2 hPa | 0 mm | - | 281 W/m² | - |
| 1778093800 | 11.11° C | 43% | 982.3 hPa | 0 mm | - | 294 W/m² | - |
| 1778093759 | 11.11° C | 43% | 982.3 hPa | 0 mm | - | 294 W/m² | - |
| 1778093247 | 10.56° C | 44% | 982.2 hPa | 0 mm | - | 266 W/m² | - |
| 1778093160 | 10.56° C | 44% | 982.2 hPa | 0 mm | - | 266 W/m² | - |
| 1778092707 | 10.56° C | 44% | 982.2 hPa | 0 mm | - | 296 W/m² | - |
| 1778092559 | 10.56° C | 44% | 982.2 hPa | 0 mm | - | 296 W/m² | - |
| 1778091959 | 11.11° C | 43% | 982.1 hPa | 0 mm | - | 248 W/m² | - |
| 1778091508 | 11.11° C | 43% | 982.2 hPa | 0 mm | - | 487 W/m² | - |
| 1778090844 | 11.11° C | 45% | 982.3 hPa | 0 mm | - | 1214 W/m² | - |
| 1778090249 | 10.56° C | 45% | 982.3 hPa | 0 mm | - | 448 W/m² | - |
| 1778090159 | 10.56° C | 45% | 982.3 hPa | 0 mm | - | 448 W/m² | - |
| 1778088959 | 10.56° C | 45% | 982.4 hPa | 0 mm | - | 242 W/m² | - |
| 1778088360 | 11.11° C | 45% | 982.5 hPa | 0 mm | - | 307 W/m² | - |
| 1778087796 | 10.56° C | 46% | 982.5 hPa | 0 mm | - | 357 W/m² | - |
| 1778087759 | 10.56° C | 46% | 982.5 hPa | 0 mm | - | 357 W/m² | - |
| 1778086648 | 10.56° C | 45% | 982.6 hPa | 0 mm | - | 321 W/m² | - |
| 1778085359 | 10.56° C | 44% | 982.6 hPa | 0 mm | - | 218 W/m² | - |
| 1778083648 | 10° C | 46% | 982.7 hPa | 0 mm | - | 269 W/m² | - |
| 1778083559 | 10° C | 46% | 982.7 hPa | 0 mm | - | 269 W/m² | - |
| 1778083106 | 10° C | 43% | 982.7 hPa | 0 mm | - | 956 W/m² | - |
| 1778082959 | 10° C | 43% | 982.7 hPa | 0 mm | - | 956 W/m² | - |
| 1778080649 | 10° C | 46% | 982.5 hPa | 0 mm | - | 168 W/m² | - |
* Rain latest hour (hover to see other rain measurements)
** Current wind speed in m/s (hover to see current wind gust speed)